Location: Most
(50.5133°N, 13.6207°E)
Time: 09:43:42
(UTC+01:00)

Oscar 11 - Pass Details

Date: 01 December 2021
Orbit: 611 x 625 km, 97.6° (Epoch: 26 January)

Event Time Altitude Azimuth Distance (km) Brightness Sun altitude
Rises 06:40:00 0° 5° (N) 2,923 10.3 -9.8°
Reaches altitude 10° 06:42:26 10° 354° (N) 2,010 9.4 -9.5°
Maximum altitude 06:46:08 28° 296° (WNW) 1,190 7.9 -8.9°
Drops below altitude 10° 06:49:49 10° 238° (WSW) 1,992 9.3 -8.4°
Sets 06:52:13 0° 226° (SW) 2,891 10.3 -8.1°
